TimeMST,TemperatureF,Dew PointF,Humidity,Sea Level PressureIn,VisibilityMPH,Wind Direction,Wind SpeedMPH,Gust SpeedMPH,PrecipitationIn,Events,Conditions,WindDirDegrees,DateUTC
12:53 AM,9.0,5.0,84,30.09,10.0,WSW,4.6,-,N/A,,Clear,240,2014-01-03 07:53:00
1:53 AM,10.0,6.1,84,30.03,10.0,SW,9.2,-,N/A,,Clear,230,2014-01-03 08:53:00
2:53 AM,10.0,6.1,84,29.99,10.0,SSW,5.8,-,N/A,,Clear,200,2014-01-03 09:53:00
3:53 AM,12.9,9.0,84,29.94,10.0,WNW,4.6,-,N/A,,Clear,300,2014-01-03 10:53:00
4:53 AM,12.9,9.0,84,29.90,10.0,SW,8.1,-,N/A,,Clear,230,2014-01-03 11:53:00
5:53 AM,12.0,9.0,88,29.88,10.0,West,4.6,-,N/A,,Clear,270,2014-01-03 12:53:00
6:53 AM,12.0,9.0,88,29.86,10.0,Calm,Calm,-,N/A,,Clear,0,2014-01-03 13:53:00
7:53 AM,10.9,8.1,88,29.83,10.0,Variable,4.6,-,N/A,,Clear,0,2014-01-03 14:53:00
8:53 AM,14.0,10.0,84,29.77,10.0,SW,5.8,-,N/A,,Partly Cloudy,220,2014-01-03 15:53:00
9:53 AM,19.9,14.0,78,29.72,10.0,Variable,6.9,-,N/A,,Partly Cloudy,0,2014-01-03 16:53:00
10:53 AM,19.9,14.0,78,29.73,10.0,Calm,Calm,-,N/A,,Scattered Clouds,0,2014-01-03 17:53:00
11:53 AM,24.1,16.0,71,29.71,10.0,Calm,Calm,-,N/A,,Partly Cloudy,0,2014-01-03 18:53:00
12:53 PM,28.9,19.9,69,29.65,10.0,South,8.1,-,N/A,,Clear,180,2014-01-03 19:53:00
1:53 PM,30.0,19.9,66,29.65,10.0,NE,8.1,-,N/A,,Clear,50,2014-01-03 20:53:00
2:53 PM,32.0,19.0,59,29.68,10.0,Calm,Calm,-,N/A,,Clear,0,2014-01-03 21:53:00
3:32 PM,36.0,28.0,73,29.60,10.0,NNW,9.2,-,N/A,,Scattered Clouds,330,2014-01-03 22:32:00
3:53 PM,37.0,28.0,70,29.73,10.0,NNE,9.2,-,N/A,,Mostly Cloudy,30,2014-01-03 22:53:00
4:53 PM,36.0,25.0,64,29.77,10.0,North,15.0,-,N/A,,Overcast,350,2014-01-03 23:53:00
5:53 PM,36.0,21.0,55,29.79,10.0,NNW,25.3,35.7,N/A,,Overcast,340,2014-01-04 00:53:00
6:53 PM,33.1,19.0,56,29.83,10.0,NNW,27.6,32.2,N/A,,Mostly Cloudy,340,2014-01-04 01:53:00
7:53 PM,30.0,19.0,64,29.89,10.0,NNW,16.1,24.2,N/A,,Clear,340,2014-01-04 02:53:00
8:53 PM,26.1,17.1,69,29.95,10.0,NNW,16.1,-,N/A,,Clear,330,2014-01-04 03:53:00
9:53 PM,24.1,16.0,71,29.98,10.0,NW,15.0,-,N/A,,Clear,310,2014-01-04 04:53:00
10:53 PM,23.0,16.0,74,30.00,10.0,NW,9.2,-,N/A,,Clear,320,2014-01-04 05:53:00
11:53 PM,21.9,15.1,75,30.02,10.0,WSW,11.5,-,N/A,,Clear,250,2014-01-04 06:53:00